Weather History for Mount Pleasant, IA

Change the Weather History Date:

Sunday, February 3, 2013

  Actual Average Record
Temperature  
Mean Temperature 24 °F -  
Max Temperature 29 °F 31 °F 68 °F (1992)
Min Temperature 19 °F 14 °F -13 °F (2014)
Degree Days  
Heating Degree Days 41    
Moisture  
Dew Point 16 °F    
Average Humidity 72    
Maximum Humidity 93    
Minimum Humidity 56    
Precipitation  
Precipitation 0.00 in - - ()
Sea Level Pressure  
Sea Level Pressure 30.05 in    
Wind  
Wind Speed 10 mph (SW)    
Max Wind Speed 24 mph    
Max Gust Speed 38 mph    
Visibility 10 miles    
Events Snow    
Averages and records for this station are not official NWS values.
T = Trace of Precipitation, MM = Missing Value Source: NWS Daily Summary

Daily Weather History Graph

Daily Weather History Graph

Search for Another Location

Airport:

Trip Planner

Search our weather history database for the weather conditions in past years. The results will help you decide how hot, cold, wet, or windy it might be!

Date:

Astronomy

Feb. 03, 2013 Rise Set
Actual Time 7:14 AM CST 5:26 PM CST
Civil Twilight 6:45 AM CST 5:55 PM CST
Nautical Twilight 6:12 AM CST 6:27 PM CST
Astronomical Twilight 5:40 AM CST 6:59 PM CST
Moon 12:42 AM CST (2/3) 11:03 AM CST (2/3)
Length of Visible Light 11h 09m
Length of Day
10h 11m
Waning Gibbous, 48% of the Moon is Illuminated
Feb 3
Waning Gibbous
Feb 10
New
Feb 17
First Quarter
Feb 25
Full
Mar 4
Last Quarter

Hourly Weather History & Observations

Time (CST) Temp. Windchill Dew Point Humidity Pressure Visibility Wind Dir Wind Speed Gust Speed Precip Events Conditions
12:15 AM 19.0 °F 10.0 °F 16.5 °F 90% 30.01 in 5.0 mi SSE 6.9 mph - N/A Snow Light Snow
12:35 AM 19.0 °F 11.1 °F 16.7 °F 91% 30.00 in 7.0 mi South 5.8 mph - N/A Snow Light Snow
12:55 AM 19.4 °F 12.8 °F 17.1 °F 91% 29.99 in 10.0 mi South 4.6 mph - N/A   Overcast
1:15 AM 19.9 °F 12.1 °F 17.6 °F 91% 29.99 in 10.0 mi South 5.8 mph - N/A   Overcast
1:35 AM 20.3 °F 15.4 °F 18.1 °F 91% 29.99 in 10.0 mi South 3.5 mph - N/A   Overcast
1:55 AM 20.7 °F 13.0 °F 18.5 °F 91% 29.99 in 10.0 mi South 5.8 mph - N/A   Overcast
2:15 AM 20.8 °F 16.0 °F 18.9 °F 92% 29.99 in 10.0 mi SSW 3.5 mph - N/A   Overcast
2:35 AM 21.6 °F 14.0 °F 19.6 °F 92% 29.99 in 10.0 mi SSW 5.8 mph - N/A   Overcast
2:55 AM 22.1 °F 15.9 °F 20.3 °F 93% 29.99 in 10.0 mi SSW 4.6 mph - N/A   Overcast
3:15 AM 22.6 °F 14.3 °F 20.8 °F 93% 29.99 in 10.0 mi SW 6.9 mph - N/A   Overcast
3:35 AM 25.2 °F 13.3 °F 22.5 °F 89% 29.99 in 10.0 mi West 13.8 mph 18.4 mph N/A   Overcast
3:55 AM 26.6 °F 15.2 °F 21.9 °F 82% 29.99 in 10.0 mi WNW 13.8 mph 23.0 mph N/A   Overcast
4:15 AM 27.3 °F 13.6 °F 20.7 °F 76% 30.00 in 10.0 mi WNW 20.7 mph 28.8 mph N/A   Overcast
4:35 AM 26.1 °F 12.7 °F 18.9 °F 74% 30.01 in 7.0 mi WNW 18.4 mph 38.0 mph N/A   Overcast
4:55 AM 25.5 °F 12.4 °F 18.5 °F 75% 30.02 in 10.0 mi WNW 17.3 mph 27.6 mph N/A   Overcast
5:15 AM 23.2 °F 7.5 °F 15.4 °F 72% 30.03 in 10.0 mi WNW 23.0 mph 32.2 mph N/A   Scattered Clouds
5:35 AM 22.1 °F 5.7 °F 14.5 °F 73% 30.04 in 10.0 mi WNW 24.2 mph 32.2 mph N/A   Mostly Cloudy
5:55 AM 21.6 °F 7.3 °F 14.0 °F 73% 30.06 in 10.0 mi WNW 17.3 mph 26.5 mph N/A   Overcast
6:15 AM 21.2 °F 5.6 °F 13.5 °F 72% 30.07 in 10.0 mi WNW 20.7 mph 28.8 mph N/A   Overcast
6:35 AM 20.7 °F 5.3 °F 13.3 °F 73% 30.07 in 10.0 mi WNW 19.6 mph 29.9 mph N/A   Overcast
6:55 AM 20.3 °F 6.1 °F 13.1 °F 74% 30.08 in 10.0 mi WNW 16.1 mph 33.4 mph N/A   Overcast
7:15 AM 20.1 °F 5.9 °F 12.7 °F 73% 30.09 in 10.0 mi WNW 16.1 mph 23.0 mph N/A   Mostly Cloudy
7:35 AM 19.6 °F 5.2 °F 12.6 °F 74% 30.10 in 10.0 mi WNW 16.1 mph 25.3 mph N/A   Scattered Clouds
7:55 AM 19.6 °F 5.7 °F 12.9 °F 75% 30.11 in 10.0 mi WNW 15.0 mph 23.0 mph N/A   Clear
8:15 AM 19.8 °F 4.1 °F 13.1 °F 75% 30.12 in 10.0 mi WNW 19.6 mph 25.3 mph N/A   Scattered Clouds
8:35 AM 20.1 °F 5.4 °F 13.1 °F 74% 30.12 in 10.0 mi WNW 17.3 mph 21.9 mph N/A   Clear
8:55 AM 20.3 °F 4.4 °F 13.1 °F 74% 30.13 in 10.0 mi WNW 20.7 mph 25.3 mph N/A   Clear
9:15 AM 20.8 °F 6.4 °F 12.4 °F 70% 30.13 in 10.0 mi WNW 17.3 mph 25.3 mph N/A   Clear
9:35 AM 21.0 °F 8.6 °F 12.2 °F 69% 30.14 in 10.0 mi WNW 12.7 mph 24.2 mph N/A   Clear
9:55 AM 21.2 °F 7.3 °F 12.2 °F 68% 30.15 in 10.0 mi NW 16.1 mph 23.0 mph N/A   Clear
10:15 AM 21.9 °F 9.8 °F 12.6 °F 67% 30.16 in 10.0 mi WNW 12.7 mph 23.0 mph N/A   Clear
10:35 AM 22.5 °F 9.9 °F 12.2 °F 65% 30.17 in 10.0 mi WNW 13.8 mph 20.7 mph N/A   Clear
10:55 AM 22.1 °F 10.6 °F 10.4 °F 61% 30.18 in 10.0 mi WNW 11.5 mph 24.2 mph N/A   Clear
11:15 AM 23.0 °F 10.6 °F 12.0 °F 63% 30.17 in 10.0 mi West 13.8 mph - N/A   Clear
11:35 AM 23.0 °F 11.1 °F 11.3 °F 61% 30.17 in 10.0 mi West 12.7 mph 17.3 mph N/A   Clear
11:55 AM 23.4 °F 12.8 °F 11.5 °F 60% 30.16 in 10.0 mi West 10.4 mph 18.4 mph N/A   Clear
12:15 PM 24.6 °F 15.1 °F 12.2 °F 59% 30.16 in 10.0 mi West 9.2 mph 16.1 mph N/A   Clear
12:35 PM 25.2 °F 15.1 °F 13.3 °F 61% 30.16 in 10.0 mi West 10.4 mph - N/A   Mostly Cloudy
12:55 PM 25.0 °F 14.8 °F 13.1 °F 61% 30.15 in 10.0 mi West 10.4 mph - N/A   Overcast
1:15 PM 24.8 °F 14.0 °F 14.2 °F 64% 30.14 in 10.0 mi West 11.5 mph - N/A   Overcast
1:35 PM 25.3 °F 16.0 °F 14.5 °F 64% 30.14 in 10.0 mi West 9.2 mph - N/A   Overcast
1:55 PM 25.7 °F 19.0 °F 14.9 °F 64% 30.12 in 10.0 mi West 5.8 mph - N/A   Overcast
2:15 PM 26.4 °F 18.9 °F 15.8 °F 64% 30.12 in 10.0 mi WSW 6.9 mph - N/A   Overcast
2:35 PM 27.0 °F 17.3 °F 15.8 °F 63% 30.11 in 10.0 mi WSW 10.4 mph - N/A   Overcast
2:55 PM 27.5 °F 19.3 °F 14.9 °F 59% 30.11 in 10.0 mi WSW 8.1 mph - N/A   Overcast
3:15 PM 28.0 °F 20.8 °F 15.3 °F 59% 30.10 in 10.0 mi SW 6.9 mph - N/A   Overcast
3:35 PM 28.8 °F 20.9 °F 16.3 °F 60% 30.09 in 10.0 mi SSW 8.1 mph - N/A   Overcast
3:55 PM 29.7 °F 22.0 °F 15.8 °F 56% 30.07 in 10.0 mi SW 8.1 mph - N/A   Scattered Clouds
4:15 PM 29.5 °F 21.1 °F 17.4 °F 61% 30.06 in 10.0 mi SSW 9.2 mph - N/A   Clear
4:35 PM 28.8 °F 20.2 °F 17.6 °F 63% 30.05 in 10.0 mi South 9.2 mph - N/A   Clear
4:55 PM 28.4 °F 19.1 °F 16.9 °F 62% 30.04 in 10.0 mi SSW 10.4 mph - N/A   Clear
5:15 PM 27.3 °F 19.9 °F 17.1 °F 65% 30.04 in 10.0 mi SSW 6.9 mph - N/A   Clear
5:35 PM 26.2 °F 20.7 °F 17.8 °F 70% 30.03 in 10.0 mi South 4.6 mph - N/A   Mostly Cloudy
5:55 PM 25.5 °F 19.9 °F 17.4 °F 71% 30.03 in 10.0 mi South 4.6 mph - N/A   Scattered Clouds
6:15 PM 25.0 °F 19.3 °F 15.3 °F 67% 30.03 in 10.0 mi South 4.6 mph - N/A   Clear
6:35 PM 24.4 °F 17.5 °F 15.1 °F 68% 30.03 in 10.0 mi South 5.8 mph - N/A   Clear
6:55 PM 21.9 °F 13.4 °F 14.7 °F 74% 30.03 in 10.0 mi SSE 6.9 mph - N/A   Clear
7:15 PM 22.5 °F 14.1 °F 15.4 °F 74% 30.03 in 10.0 mi SSE 6.9 mph - N/A   Clear
7:35 PM 22.5 °F 14.1 °F 14.7 °F 72% 30.02 in 10.0 mi SSE 6.9 mph - N/A   Clear
7:55 PM 21.2 °F 11.7 °F 14.4 °F 75% 30.02 in 10.0 mi SSE 8.1 mph - N/A   Clear
8:15 PM 21.6 °F 12.1 °F 14.5 °F 74% 30.01 in 10.0 mi SE 8.1 mph - N/A   Clear
8:35 PM 22.1 °F 12.8 °F 14.5 °F 73% 30.00 in 10.0 mi SE 8.1 mph - N/A   Clear
8:55 PM 22.3 °F 11.5 °F 15.1 °F 74% 30.00 in 10.0 mi SSE 10.4 mph - N/A   Clear
9:15 PM 22.8 °F 15.5 °F 14.9 °F 72% 30.00 in 10.0 mi SE 5.8 mph - N/A   Scattered Clouds
9:35 PM 21.9 °F 11.7 °F 15.4 °F 76% 29.98 in 10.0 mi SSE 9.2 mph - N/A   Clear
9:55 PM 23.2 °F 13.3 °F 16.2 °F 75% 29.97 in 10.0 mi SSE 9.2 mph - N/A   Scattered Clouds
10:15 PM 25.3 °F 15.3 °F 16.9 °F 70% 29.95 in 10.0 mi SSE 10.4 mph - N/A   Mostly Cloudy
10:35 PM 25.3 °F 16.0 °F 17.1 °F 71% 29.94 in 10.0 mi SSE 9.2 mph - N/A   Overcast
10:55 PM 25.2 °F 15.1 °F 17.1 °F 71% 29.93 in 10.0 mi SSE 10.4 mph - N/A   Mostly Cloudy
11:15 PM 25.3 °F 16.0 °F 16.9 °F 70% 29.92 in 10.0 mi SSE 9.2 mph - N/A   Scattered Clouds
11:35 PM 25.9 °F 15.3 °F 16.7 °F 68% 29.91 in 10.0 mi SSE 11.5 mph - N/A   Clear
11:55 PM 26.6 °F 16.2 °F 16.5 °F 66% 29.90 in 10.0 mi SSE 11.5 mph - N/A   Clear